Regional Weather Roundup
Issued by NWS

Home | Current Version | Previous Version | Text Only | Print | Product List | Glossary On
Versions: 1 2 3 4 5 6 7 8 9 10 11 12 13 14 15 16 17 18 19 20 21 22 23 24 25 26 27 28 29 30 31 32 33 34 35 36 37 38 39 40 41 42 43 44 45 46 47 48 49 50
000
ASUS43 KLMK 012310
RWRKY
KENTUCKY REGIONAL WEATHER ROUNDUP
NATIONAL WEATHER SERVICE LOUISVILLE KY
700 PM EDT FRI JUL 01 2016

NOTE "FAIR" INDICATES FEW OR NO CLOUDS BELOW 12,000 FEET
WITH NO SIGNIFICANT WEATHER AND/OR OBSTRUCTIONS TO VISIBILITY.

KYZ001>023-026-027-061>063-070>075-020000-
WESTERN AND SOUTH CENTRAL KENTUCKY

CITY           SKY/WX    TMP DP  RH WIND       PRES   REMARKS
PADUCAH        SUNNY     86  61  42 N9        30.01F
HENDERSON      MOSUNNY   84  57  39 N8        29.99S
OWENSBORO      MOSUNNY   86  62  44 N8        30.00S
HOPKINSVILLE   MOSUNNY   85  67  54 NW9       29.99S
BOWLING GREEN  SUNNY     86  67  52 W9        29.98S
GLASGOW        MOSUNNY   85  67  55 NW5       29.99R
$$

KYZ024-025-028>034-038-045-046-053-020000-
NORTH CENTRAL KENTUCKY

CITY           SKY/WX    TMP DP  RH WIND       PRES   REMARKS
LOUISVILLE/SDF MOSUNNY   84  60  44 N13       29.98S
LOUISVILLE/LOU SUNNY     84  61  45 NW9       29.99S
FORT KNOX      MOSUNNY   83  66  55 N9        29.98S
$$

KYZ035>037-039>044-047>052-055>060-089>105-020000-
NORTHEAST KENTUCKY

CITY           SKY/WX    TMP DP  RH WIND       PRES   REMARKS
LEXINGTON      MOSUNNY   82  66  58 NW9       30.00S
COVINGTON      MOSUNNY   81  57  43 NW14G20   30.01R
FRANKFORT      SUNNY     84  63  49 NW8       29.99S
$$

KYZ054-064>069-076>088-106>120-020000-
SOUTHEAST KENTUCKY

CITY           SKY/WX    TMP DP  RH WIND       PRES   REMARKS
JACKSON        MOSUNNY   80  66  62 CALM      30.01F
LONDON         CLOUDY    82  63  52 W10       30.01R
SOMERSET       SUNNY     79  64  61 W6        30.01S
MIDDLESBORO    PTSUNNY   83  64  52 CALM      30.01S
MONTICELLO     PTCLDY   N/A N/A N/A CALM      30.01F
$$





USA.gov is the U.S. government's official web portal to all federal, state and local government web resources and services.